Location: Cactus School
(34.5700°N, 118.0931°W)
Time: 02:37:02
(UTC-07:00)

Transit 4A - Pass Details

Date: 15 April 2024
Orbit: 871 x 971 km, 66.8° (Epoch: 20 May)

Event Time Altitude Azimuth Distance (km) Brightness Sun altitude
Rises 00:51:15 0° 323° (NW) 3,464 11.4 -45.4°
Enters shadow 00:53:20 - 317° (NW) 2,723 10.7 -45.4°
Reaches altitude 10° 00:53:55 10° 314° (NW) 2,526 - -45.4°
Maximum altitude 00:59:06 34° 251° (WSW) 1,403 - -45.4°
Drops below altitude 10° 01:04:21 10° 188° (S) 2,551 - -45.3°
Sets 01:07:04 0° 179° (S) 3,502 - -45.3°
